User: anonymous   Login
Location: Unspecified
(0.0000°N, 0.0000°E)
Time: 00:23:20
(UTC+00:00)
Language:

OBJECT E - Orbit

View from above orbital plane
View from above orbital plane
View from above satellite
View from above satellite

Ground track
Ground track

The orbit is defined by the following mean orbital elements,

1 63214U          26145.43720551 +.00000000 +00000-0 +55200-3 0 00009
2 63214  97.3930  41.7568 0003126 146.2117 213.9326 15.33530146    01
Epoch (UTC): 25 May 2026 10:29:34
Eccentricity: 0.0003126
inclination: 97.3930°
perigee height: 463 km
apogee height: 467 km
right ascension of ascending node: 41.7568°
argument of perigee: 146.2117°
revolutions per day: 15.33530146
mean anomaly at epoch: 213.9326°

The dashed part of the orbit path shows where the satellite is in the earth's shadow,  

DLR